Satellite-Ground Cal/Val Region Overpasses Predictions

Prediction of Satellite NPP Overpassing Cal/Val Region: PacNW

Region Location: (Latitude: 10.00, Longitude: 139.50) to (Latitude: 22.70, Longitude: 165.60).

Table of predicted overpasses for the next 14.0 days since TLE Epoch: 1/10/2020
Interval Starting Time Starting Location Ending Time Ending Location
1 01/11/2020 03:42:15 ( 10.01, 144.09) 01/11/2020 03:45:51 ( 22.69, 141.07)
2 01/11/2020 14:33:55 ( 18.18, 165.59) 01/11/2020 14:36:14 ( 10.01, 163.68)
3 01/11/2020 16:14:08 ( 22.68, 141.32) 01/11/2020 16:16:15 ( 15.23, 139.51)
4 01/12/2020 03:23:12 ( 10.02, 148.85) 01/12/2020 03:26:47 ( 22.65, 145.84)
5 01/12/2020 15:55:05 ( 22.67, 146.08) 01/12/2020 15:58:40 ( 10.05, 143.07)
6 01/13/2020 03:04:10 ( 10.03, 153.60) 01/13/2020 03:07:45 ( 22.66, 150.60)
7 01/13/2020 15:36:03 ( 22.66, 150.83) 01/13/2020 15:39:38 ( 10.04, 147.83)
8 01/14/2020 02:45:07 ( 10.04, 158.36) 01/14/2020 02:48:42 ( 22.67, 155.36)
9 01/14/2020 15:17:00 ( 22.65, 155.59) 01/14/2020 15:20:35 ( 10.03, 152.59)
10 01/15/2020 02:26:05 ( 10.06, 163.12) 01/15/2020 02:29:40 ( 22.68, 160.12)
11 01/15/2020 14:57:57 ( 22.70, 160.36) 01/15/2020 15:01:33 ( 10.02, 157.35)
12 01/16/2020 02:09:48 ( 19.76, 165.60) 01/16/2020 02:10:38 ( 22.69, 164.87)
13 01/16/2020 03:48:32 ( 10.02, 142.51) 01/16/2020 03:52:07 ( 22.64, 139.51)
14 01/16/2020 14:38:54 ( 22.69, 165.12) 01/16/2020 14:42:30 ( 10.01, 162.11)
15 01/16/2020 16:20:24 ( 22.68, 139.74) 01/16/2020 16:20:40 ( 21.74, 139.51)
16 01/17/2020 03:29:29 ( 10.03, 147.27) 01/17/2020 03:33:04 ( 22.66, 144.27)
17 01/17/2020 16:01:22 ( 22.66, 144.50) 01/17/2020 16:04:57 ( 10.05, 141.50)
18 01/18/2020 03:10:27 ( 10.04, 152.03) 01/18/2020 03:14:02 ( 22.67, 149.03)
19 01/18/2020 15:42:19 ( 22.65, 149.26) 01/18/2020 15:45:54 ( 10.03, 146.26)
20 01/19/2020 02:51:24 ( 10.06, 156.79) 01/19/2020 02:54:59 ( 22.68, 153.78)
21 01/19/2020 15:23:16 ( 22.70, 154.03) 01/19/2020 15:26:52 ( 10.02, 151.02)
22 01/20/2020 02:32:21 ( 10.01, 161.56) 01/20/2020 02:35:57 ( 22.70, 158.54)
23 01/20/2020 15:04:13 ( 22.69, 158.79) 01/20/2020 15:07:49 ( 10.01, 155.77)
24 01/21/2020 02:14:11 ( 13.14, 165.60) 01/21/2020 02:16:53 ( 22.65, 163.31)
25 01/21/2020 03:54:48 ( 10.04, 140.94) 01/21/2020 03:56:33 ( 16.21, 139.50)
26 01/21/2020 14:45:11 ( 22.67, 163.54) 01/21/2020 14:48:46 ( 10.05, 160.54)
27 01/22/2020 03:35:46 ( 10.05, 145.69) 01/22/2020 03:39:21 ( 22.67, 142.69)
28 01/22/2020 14:29:21 ( 11.33, 165.60) 01/22/2020 14:29:43 ( 10.04, 165.30)
29 01/22/2020 16:07:38 ( 22.65, 142.92) 01/22/2020 16:11:13 ( 10.03, 139.92)
30 01/23/2020 03:16:42 ( 10.01, 150.46) 01/23/2020 03:20:18 ( 22.69, 147.45)
31 01/23/2020 15:48:35 ( 22.70, 147.70) 01/23/2020 15:52:11 ( 10.02, 144.68)
32 01/24/2020 02:57:40 ( 10.02, 155.22) 01/24/2020 03:01:15 ( 22.64, 152.22)


NCC Satellite Cal/Val Overpasses Prediction Service
